Погода в Цимлянске

Погода в Цимлянске : погода сейчас, прогноз погоды и архив. Всё, что Вы хотите узнать о погоде в Цимлянске!

Хотите узнать прогноз погоды в Цимлянске? Тогда Вам сюда: Погода в Цимлянске

Поиск расширенной информации на нашем сайте:

Другие новости

Новости СМИ2

Главная страница сайта

Новости сайта

02.10.2013

Напоминаем, что на нашем новом сайте вы можете получить высокодетализированные прогнозы погоды по пунктам России, СНГ и мира (включающие важные для авиации метеовеличины, такие как направление и скорость ветра, видимость, явления погоды, количество и форма облачности, нижняя и верхняя граница облачности), а также ознакомиться с разнообразными материалами по авиационной метеорологии и подборкой полезных ссылок на эту тему.

Сайт Метеоцентр.Азия посвящён разработке технологий оптимизации авиаметеорологического обслуживания, включая проектирование и перспективное создание нескольких автоматизированных авиаметеорологических систем:
- система выпуска высокодетальных прогностических карт явлений погоды для нижнего воздушного пространства по России и ближнему зарубежью;
- система верификации прогнозов TAF (выпускаемых синоптиками официальных АМСГ РФ и ближнего зарубежья) и AUTOTAF (выпускаемых сайтом Метеоцентр.Азия) - выявление ошибок, онлайн-сопоставление с фактической погодой METAR, автоматическое внесение коррективов в прогнозы при резком отклонении фактической погоды от прогноза, подсчёт оправдываемости прогнозов по элементам и в целом;
- система обработки, анализа и отображения авиаметеорологической информации для применения провайдерами метеорологической информации.

Рекомендуем: Подробности сканер штрих кода у нас.

Погода в Цимлянске - сегодня

Время (UTC), дата Ветер
(°,м/с) 
Видим.   Явления Облачность Т
(°С)
Тd
(°С)
f(%) Тe
(°С)
Pmin
(гПа)
dP
(гПа)
Po
(мм)
O2
(г/м3)
Тmin Tmax R s Состояние
почвы
09 18.01.17 060 (СВ) 4000 м  снежные зёрна  10/10 300 м 
[St]
-3 -4.7 88 -5  1033.3  0.5  769  314           
12 18.01.17 040 (СВ) 20000 м  в посл. час морось{снег}  10/10 300 м 
[St]
-2.8 -5.6 81 -5  1033.4  -0.1  769  314           
15 18.01.17 040 (СВ) 20000 м    10/10 300 м 
[St]
-3.7 -6.2 83 -6  1034.3  0.9  769  315    -2.4  0.2     
18 18.01.17 030 (СВ) 20000 м    10/10 300 м 
[St]
-4.9 -7.1 85 -7  1035.1  0.7  770  317           
21 18.01.17 040 (СВ) 20000 м    10/10 300 м 
[St]
-6.1 -8.2 85 -9  1034.9  -0.2  770  318           
00 19.01.17 050 (СВ) 20000 м    10/10 300 м 
[St]
-6.5 -8.4 86 -9  1035.2  0.3  770  319           
03 19.01.17 060 (СВ) 20000 м    10/10 300 м 
[St]
-7.2 -8.9 88 -9  1035.7  0.5  770  320  -7.6      <0.5  равномерный
сухой снег
100% 
06 19.01.17 050 (СВ) 4000 м  снежные зёрна  10/10 300 м 
[St]
-6.9 -8.8 86 -8  1036.6  0.9  771  320           
09 19.01.17 060 (СВ) 4000 м  снежные зёрна  10/10 300 м 
[St]
-6.8 -9.2 83 -8  1036.5  0.1  771  320           
12 19.01.17 040 (СВ) 20000 м  в посл. час морось{снег}  10/10 300 м 
[St]
-6.9 -9.4 82 -8  1035.9  -0.6  770  319           
15 19.01.17 тихо ()   20000 м    10/10 300 м 
[St]
-8 -9.9 86 -8  1035.6  -0.3  770  321    -6.3  0.2     
18 19.01.17 340 (С) 20000 м    10/10 300 м 
[St]
-8 -9.9 86 -8  1035.6  770  321           
21 19.01.17 250 (З) 20000 м    10/10 300 м 
[St]
-7.8 -9.9 85 -8  1034.4  -1.2  769  320           
00 20.01.17 270 (З) 20000 м    10/10 300 м 
[St]
-7.6 -9.9 84 -9  1033.3  -1  768  320           
03 20.01.17 260 (З) 20000 м    10/10 300 м 
[St]
-7.6 -9.9 84 -10  1031.5  -1.8  767  319  -8      <0.5  равномерный
сухой снег
100% 
06 20.01.17 250 (З) 20000 м    10/10 300 м 
[St]
-8 -10.4 83 -12  1030.6  -0.9  766  319           
09 20.01.17 240 (ЮЗ) 6-10{11}  20000 м  в посл. час ливневой снег  9/9 600 м 
[Sc]
-6.8 -10.1 77 -12  1028.8  -1.8  765  317           
12 20.01.17 240 (ЮЗ) 6-10{12}  20000 м  {ливн. осадки}  10/5 600 м средняя, верхняя 
[Sc|Ac trans|Ci fib]
-5.5 -9.1 76 -10  1025.8  -2.9  763  315           
15 20.01.17 240 (ЮЗ) 6-11{13}  20000 м    10/8 600 м средняя, верхняя 
[Sc|Ac trans|Ci fib]
-5.9 -8.7 81 -10  1024  -1.8  762  315    -5.1  0.0     
18 20.01.17 250 (З) 6-10{13}  4000 м  слаб. снег  10/10 300 м 
[Ns]
-5.9 -7.9 86 -10  1023.2  -0.8  761  314           
21 20.01.17 260 (З) 4{10}  10 км  слаб. переохл. морось (гололёд){снег} [диам. гололёда 0 мм]  10/10 300 м 
[St]
-5.2 -6.3 92 -8  1022.8  -0.4  761  313           
00 21.01.17 270 (З) 20000 м  {снег, морось} [диам. гололёда 0 мм]  10/10 300 м 
[St]
-4.8 -6.6 87 -7  1022.3  -0.5  760  313           
03 21.01.17 270 (З) 20000 м  [диам. гололёда 0 мм]  10/10 300 м 
[St]
-5 -6.1 92 -7  1021.2  -1.1  760  312  -6.2    0.5  <0.5  неравномерный
сухой снег
100% 
06 21.01.17 260 (З) 4000 м  дымка [диам. гололёда 0 мм]  10/10 300 м 
[St]
-4.6 -5.8 91 -8  1021.6  0.4  760  312           
09 21.01.17 260 (З) 5{10}  10 км  {снег}  10/10 300 м 
[St]
-3.5 -5.1 89 -7  1020.4  -1.2  759  310           
Время (UTC), дата Ветер
(°,м/с) 
Видим.   Явления Облачность Т
(°С)
Тd
(°С)
f(%) Тe
(°С)
Pmin
(гПа)
dP
(гПа)
Po
(мм)
O2
(г/м3)
Тmin Tmax R s Состояние
почвы

Для получения пояснительной информации подведите курсор к названию столбца.

ПОГОДА в Цимлянске - архив

Всё, что Вы хотите узнать о погоде в Цимлянске - удобно и подробно!

Выберите нужную дату (начиная с 1 января 2015* года) и нажмите кнопку "Найти".
Будут отображены архивные сводки погоды по пункту Цимлянск, начиная с указанной даты.


Отображать данные в формате CSV (для использования в таблицах Excel)


Внимание! Наш архив погоды предназначен исключительно для личного некоммерческого использования в познавательных целях. Если Вам необходимы официальные справки о состоянии погоды (для производственных, юридических, коммерческих и т.п. целей), обращайтесь в органы Росгидромета.

*Примечание: данная дата относится к архиву по метеостанциям СССР (Россия, СНГ, Балтия).
Архив по метеостанциям Зарубежной Европы и Азии (кроме Китая) хранится 10 дней, по другим регионам земного шара (Китай, Африка, Америка, Австралия, Океания) - 1 день.

Цимлянск - район местоположения метеостанции


Название, широта, долгота, высота метеостанции:
Цимлянск 47.6°ш. 42.1°д. 65 м над ур. моря [Российская Федерация]

Дополнительная информация

В oтличие oт бoльшинства пoгoдных сайтoв мы публикуем пoдрoбную метеoинфoрмацию в детальнoм прoфессиoнальнoм фoрмате.

Характеристики температуры и влажнoсти вoздуха измеряются на высoте 2 м в тени вдали oт зданий и деревьев.
Скoрoсть ветра измеряется на высoте 10 м (на урoвне рoста челoвека скoрoсть ветра ниже в 1.5-2 раза). Если метеoстанция нахoдится в гoрoде или в лесу, тo скoрoсть ветра занижена на 2-4 м/с пo сравнению с oткрытым местoм. Скoрoсть ветра над акватoриями крупных рек и oзёр, а также на вершинах хoлмoв на 2-5 м/с выше, чем в oбычных услoвиях.
Атмoсфернoе давление в разных тoчках местнoсти мoжет значительнo oтличаться oт давления на метеoстанции, в зависимoсти oт услoвий рельефа (при пoдъёме на 10 м давление пoнижается примернo на 1 мм рт.ст.).